Location: Prague
(50.0830°N, 14.4670°E)
Time: 12:09:31
(UTC+01:00)

Tiangong - Visible Passes

Search period start: 29 November 2022 00:00
Search period end: 09 December 2022 00:00
Orbit: 385 x 393 km, 41.5° (Epoch: 29 November)

Date Brightness Start Highest point End Pass type
(mag) Time Alt. Az. Time Alt. Az. Time Alt. Az.
01 Dec 0.9 18:44:19 10° SSW 18:44:30 11° SSW 18:44:30 11° SSW visible
02 Dec 0.4 17:46:54 10° S 17:48:16 12° SSE 17:49:04 11° SSE visible
03 Dec 0.3 18:24:17 10° SW 18:25:54 16° S 18:25:54 16° S visible
04 Dec 0.3 17:26:26 10° SSW 17:28:24 15° S 17:30:21 10° SE visible
04 Dec 1.2 19:02:29 10° SW 19:02:41 11° SW 19:02:41 11° SW visible
05 Dec 0.1 18:04:18 10° SW 18:06:32 18° S 18:07:09 17° SSE visible
06 Dec 0.3 17:06:11 10° SW 17:08:23 17° S 17:10:34 10° SE visible
06 Dec 0.7 18:42:46 10° SW 18:43:55 14° SSW 18:43:55 14° SSW visible
07 Dec 0.4 17:44:19 10° SW 17:46:27 17° S 17:48:25 11° SSE visible
08 Dec 0.4 16:45:59 10° SW 16:48:13 18° S 16:50:26 10° SE visible
08 Dec 0.8 18:23:17 10° SW 18:24:24 11° SSW 18:25:16 10° S visible
